Rosharon, TX

8:22 PM CST on December 03, 2016 (GMT -0600)
Houston-Southwest

Weather History for KAXH - November, 2012

Change the Weather History Date:

Friday, November 16, 2012

  Actual Average (KSGR) Record (KSGR)
Temperature  
Mean Temperature 55 °F -  
Max Temperature 67 °F 71 °F 88 °F (1951)
Min Temperature 41 °F 49 °F 28 °F (1970)
Degree Days  
Heating Degree Days 10    
Growing Degree Days 5 (Base 50)    
Moisture  
Dew Point 36 °F    
Average Humidity 54    
Maximum Humidity 92    
Minimum Humidity 25    
Precipitation  
Precipitation 0.00 in - - ()
Sea Level Pressure  
Sea Level Pressure 30.31 in    
Wind  
Wind Speed 4 mph (NE)    
Max Wind Speed 13 mph    
Max Gust Speed 18 mph    
Visibility 10 miles    
Events      
Averages and records for this station are not official NWS values.
T = Trace of Precipitation, MM = Missing Value Source: NWS Daily Summary

Daily Weather History Graph

Daily Weather History Graph

Search for Another Location

Airport or City:

Trip Planner

Search our weather history database for the weather conditions in past years. The results will help you decide how hot, cold, wet, or windy it might be!

Date:

Astronomy

Nov. 16, 2012 Rise Set
Actual Time 6:47 AM CST 5:25 PM CST
Civil Twilight 6:22 AM CST 5:51 PM CST
Nautical Twilight 5:53 AM CST 6:20 PM CST
Astronomical Twilight 5:24 AM CST 6:48 PM CST
Moon 9:39 AM CST (11/16) 8:29 PM CST (11/16)
Length of Visible Light 11h 29m
Length of Day
10h 38m
Waxing Crescent, 12% of the Moon is Illuminated
Nov 16
Waxing Crescent
Nov 20
First Quarter
Nov 28
Full
Dec 6
Last Quarter
Dec 13
New

Hourly Weather History & Observations

Time (CST) Temp. Windchill Dew Point Humidity Pressure Visibility Wind Dir Wind Speed Gust Speed Precip Events Conditions
12:15 AM 52.5 °F - 44.2 °F 73% 30.30 in 10.0 mi Calm Calm - N/A   Overcast
12:35 AM 52.9 °F - 45.1 °F 75% 30.30 in 10.0 mi Calm Calm - N/A   Overcast
12:55 AM 54.3 °F - 42.3 °F 64% 30.30 in 10.0 mi NNE 3.5 mph - N/A   Overcast
1:15 AM 54.5 °F - 41.4 °F 61% 30.31 in 10.0 mi Calm Calm - N/A   Overcast
1:35 AM 54.9 °F - 39.0 °F 55% 30.30 in 10.0 mi NE 5.8 mph - N/A   Overcast
1:55 AM 55.0 °F - 36.5 °F 50% 30.30 in 10.0 mi ENE 5.8 mph - N/A   Overcast
2:15 AM 54.9 °F - 35.6 °F 48% 30.30 in 10.0 mi NE 5.8 mph - N/A   Overcast
2:35 AM 54.5 °F - 34.7 °F 47% 30.30 in 10.0 mi NE 6.9 mph - N/A   Overcast
2:55 AM 53.6 °F - 34.5 °F 48% 30.29 in 10.0 mi NE 4.6 mph - N/A   Overcast
3:15 AM 52.2 °F - 34.7 °F 51% 30.29 in 10.0 mi NE 5.8 mph - N/A   Overcast
3:35 AM 50.9 °F - 34.9 °F 54% 30.28 in 10.0 mi NE 4.6 mph - N/A   Scattered Clouds
3:55 AM 50.0 °F - 35.2 °F 57% 30.29 in 10.0 mi NNE 3.5 mph - N/A   Scattered Clouds
4:15 AM 48.7 °F - 35.4 °F 60% 30.29 in 10.0 mi NNE 4.6 mph - N/A   Clear
4:35 AM 48.0 °F - 35.6 °F 62% 30.29 in 10.0 mi Calm Calm - N/A   Clear
4:55 AM 47.7 °F - 35.6 °F 63% 30.30 in 10.0 mi Calm Calm - N/A   Clear
5:15 AM 47.5 °F - 35.4 °F 63% 30.30 in 10.0 mi Calm Calm - N/A   Clear
5:35 AM 43.7 °F - 36.0 °F 74% 30.30 in 10.0 mi Calm Calm - N/A   Clear
5:55 AM 44.1 °F - 35.8 °F 73% 30.31 in 10.0 mi Calm Calm - N/A   Clear
6:15 AM 44.6 °F 43.1 °F 35.8 °F 71% 30.31 in 10.0 mi NNE 3.5 mph - N/A   Clear
6:35 AM 43.9 °F 42.3 °F 36.0 °F 74% 30.32 in 10.0 mi NNE 3.5 mph - N/A   Clear
6:55 AM 43.9 °F 41.3 °F 36.5 °F 75% 30.32 in 10.0 mi NNE 4.6 mph - N/A   Scattered Clouds
7:15 AM 46.0 °F 43.1 °F 37.9 °F 73% 30.32 in 10.0 mi NNE 5.8 mph - N/A   Mostly Cloudy
7:35 AM 47.5 °F - 38.5 °F 71% 30.32 in 10.0 mi NNE 8.1 mph - N/A   Overcast
7:55 AM 48.6 °F - 38.3 °F 68% 30.33 in 10.0 mi NNE 9.2 mph - N/A   Overcast
8:15 AM 49.3 °F - 38.7 °F 67% 30.34 in 7.0 mi NE 8.1 mph - N/A   Overcast
8:35 AM 51.4 °F - 39.6 °F 64% 30.35 in 7.0 mi NE 8.1 mph - N/A   Overcast
8:55 AM 52.9 °F - 39.6 °F 61% 30.35 in 7.0 mi NE 11.5 mph - N/A   Overcast
9:15 AM 54.3 °F - 39.7 °F 58% 30.35 in 10.0 mi NE 12.7 mph - N/A   Overcast
9:35 AM 55.4 °F - 39.7 °F 56% 30.36 in 10.0 mi NNE 10.4 mph 17.3 mph N/A   Overcast
9:55 AM 57.4 °F - 39.6 °F 51% 30.36 in 10.0 mi ENE 12.7 mph 18.4 mph N/A   Scattered Clouds
10:15 AM 58.5 °F - 38.8 °F 48% 30.36 in 10.0 mi NNE 10.4 mph - N/A   Clear
10:35 AM 60.1 °F - 36.9 °F 42% 30.36 in 10.0 mi NNE 12.7 mph 17.3 mph N/A   Clear
10:55 AM 61.0 °F - 36.5 °F 40% 30.36 in 10.0 mi NNE 8.1 mph - N/A   Clear
11:15 AM 61.7 °F - 35.2 °F 37% 30.35 in 10.0 mi NNE 9.2 mph - N/A   Clear
11:35 AM 62.2 °F - 34.9 °F 36% 30.34 in 10.0 mi NE 8.1 mph - N/A   Clear
11:55 AM 63.9 °F - 33.4 °F 32% 30.33 in 10.0 mi NE 12.7 mph 16.1 mph N/A   Clear
12:15 PM 64.0 °F - 33.3 °F 32% 30.32 in 10.0 mi NE 4.6 mph - N/A   Clear
12:35 PM 65.3 °F - 32.5 °F 29% 30.31 in 10.0 mi ENE 9.2 mph - N/A   Clear
12:55 PM 65.7 °F - 33.3 °F 30% 30.30 in 10.0 mi NNE 8.1 mph - N/A   Clear
1:15 PM 66.4 °F - 32.2 °F 28% 30.29 in 10.0 mi NNE 6.9 mph - N/A   Clear
1:35 PM 65.8 °F - 32.2 °F 29% 30.28 in 10.0 mi North 4.6 mph - N/A   Clear
1:55 PM 67.1 °F - 30.7 °F 26% 30.28 in 10.0 mi North 9.2 mph - N/A   Clear
2:15 PM 67.1 °F - 31.8 °F 27% 30.27 in 10.0 mi North 9.2 mph - N/A   Clear
2:35 PM 67.3 °F - 31.5 °F 26% 30.27 in 10.0 mi NE 9.2 mph - N/A   Clear
2:55 PM 67.6 °F - 30.7 °F 25% 30.26 in 10.0 mi NNE 4.6 mph - N/A   Clear
3:15 PM 67.1 °F - 30.9 °F 26% 30.26 in 10.0 mi NNE 9.2 mph - N/A   Clear
3:35 PM 67.3 °F - 31.6 °F 27% 30.26 in 10.0 mi NNE 5.8 mph - N/A   Clear
3:55 PM 66.6 °F - 31.1 °F 27% 30.26 in 10.0 mi NE 5.8 mph - N/A   Clear
4:15 PM 66.0 °F - 30.9 °F 27% 30.27 in 10.0 mi NNE 6.9 mph - N/A   Clear
4:35 PM 65.1 °F - 31.8 °F 29% 30.27 in 10.0 mi NNE 6.9 mph - N/A   Clear
4:55 PM 63.7 °F - 32.0 °F 31% 30.27 in 10.0 mi NNE 3.5 mph - N/A   Clear
5:15 PM 61.5 °F - 32.4 °F 33% 30.27 in 10.0 mi Calm Calm - N/A   Clear
5:35 PM 60.6 °F - 32.5 °F 35% 30.28 in 10.0 mi Calm Calm - N/A   Clear
5:55 PM 56.1 °F - 33.8 °F 43% 30.28 in 10.0 mi Calm Calm - N/A   Clear
6:15 PM 51.8 °F - 37.9 °F 59% 30.29 in 10.0 mi Calm Calm - N/A   Clear
6:35 PM 51.6 °F - 36.9 °F 57% 30.30 in 10.0 mi Calm Calm - N/A   Clear
6:55 PM 47.1 °F - 37.9 °F 70% 30.30 in 10.0 mi SSE 3.5 mph - N/A   Clear
7:15 PM 47.1 °F - 36.3 °F 66% 30.31 in 10.0 mi Calm Calm - N/A   Clear
7:55 PM 49.8 °F - 37.0 °F 61% 30.32 in 10.0 mi Calm Calm - N/A   Clear
8:15 PM 48.2 °F - 37.4 °F 66% 30.32 in 10.0 mi Calm Calm - N/A   Clear
8:35 PM 46.4 °F - 36.7 °F 69% 30.32 in 10.0 mi Calm Calm - N/A   Clear
8:55 PM 45.7 °F - 37.4 °F 73% 30.33 in 10.0 mi Calm Calm - N/A   Clear
9:15 PM 44.1 °F - 37.6 °F 78% 30.33 in 10.0 mi Calm Calm - N/A   Clear
9:35 PM 45.1 °F - 37.6 °F 75% 30.34 in 10.0 mi Calm Calm - N/A   Clear
9:55 PM 45.5 °F - 37.2 °F 73% 30.34 in 10.0 mi Calm Calm - N/A   Clear
10:15 PM 47.3 °F - 36.9 °F 67% 30.34 in 10.0 mi Calm Calm - N/A   Clear
10:35 PM 47.5 °F - 37.4 °F 68% 30.35 in 10.0 mi Calm Calm - N/A   Clear
10:55 PM 46.6 °F - 37.0 °F 69% 30.34 in 10.0 mi Calm Calm - N/A   Clear
11:15 PM 43.2 °F - 36.5 °F 77% 30.35 in 10.0 mi Calm Calm - N/A   Clear
11:35 PM 43.3 °F - 38.3 °F 82% 30.35 in 10.0 mi Calm Calm - N/A   Clear
11:55 PM 41.0 °F - 38.8 °F 92% 30.34 in 10.0 mi Calm Calm - N/A   Clear